Showing default

FLOCK 4G 10, 62670

Orbit data source: Space-Track

FLOCK 4G 10, 62670 is a payload satellite owned by Planet (US) in SSO that was launched on Tue, 14 Jan 2025 UTC via an FALCON 9 launch vehicle from the Air Force Western Test Range (AFWTR). Payload-class satellites include a variety of spacecraft equipped with specific instruments for various scientific and technological missions. These include communications satellites like Starlink; space stations such as the ISS; scientific satellites like the Hubble; Earth observation satellites from companies like Planet Labs, Umbra, and HawkEye 360; GPS; miniature CubeSats for education and research; and military/defense satellites.

Loading next visibility...
Identifier
62670, 2025-009BP
Orbit
SSO
Country
Flag of USUS
Related business
Manufacturer
Planet
Mission
Operational Commercial Imaging
Bus & Motor
CUBESAT 3U, Unknown motor
Mass
5.7 kg wet, 5.7 kg dry
Launch date (UTC)
2025-01-14 (1 year ago)
Launch vehicle
FALCON 9
Launch site
Air Force Western Test Range (AFWTR)
Object type
Payload
Rocket body
Debris
Shape & HBR
Box + 2 Pan, 1.0 m
Radar Cross Section
0.072 m², Medium (>0.1 m² and < 1m²)

Expand to show TLE details & history
Last TLE update: 9 hours ago

TLE from 9 hours ago
0 FLOCK 4G 10
1 62670U 25009BP  26126.14658052  .00009267  00000-0  33710-3 0  9996
2 62670  97.3925 207.5721 0006055 119.5492 240.6352 15.28449019130110
Epoch: 2026-05-06T03:31Z
TLE epoch observation values (Epoch: 2026-05-06T03:31:04.556Z)
Latitude
-0.00005°
Longitude
-69.20813°
Altitude
485.589 km
Speed
7.621 km/s
True Right ascension
13h 50m 17s
True Declination
0° 00' 00"
Sunlit
Object was in full shadow at epoch
Visualization orbit readout
Latitude
Unknown
Longitude
Unknown
Altitude
Unknown
Speed
Unknown
Apparent Right ascension
Unknown
Apparent Declination
Unknown
Sunlit
N/A
Visualization observer readout
Local Sidereal Time
20:29:20
Azimuth
Unknown
Elevation
Unknown
Doppler factor
Unknown
Orbital elements
Apogee altitude
481.553 km
Perigee altitude
473.251 km
Semi-major axis
6,855.539 km
Eccentricity
0.00061
Inclination
97.3925°
RAAN
207.5721°
Arg. of periapsis
119.5492°
True anomaly
240.57475°
Mean anomaly
240.6352°
Eccentric anomaly
240.60497°
Mean motion
3.82367 °/min
Orbital period
94.15 mins
BSTAR
0.0003371
Loading maneuver chart data...
Computing Atmospheric mass density...
Loading historical data...
Loading historical data...
Loading historical data...
Loading historical data...
Loading historical data...
Loading historical data...
Loading historical data...

Documentation

Showing up to 5 results
|